Terminal Aerodrome Forecast
Issued by NWS Des Moines, IA

Home | Current Version | Previous Version | Text Only | Print | Product List | Glossary On
Versions: 1 2 3 4 5 6 7 8 9 10 11 12 13 14 15 16 17 18 19 20 21 22 23 24 25 26
000
FTUS43 KDMX 041120
TAFDSM
TAF
KDSM 041120Z 0412/0512 16006KT P6SM SCT150
     FM041700 20010KT P6SM SCT120
     FM050000 16006KT P6SM BKN120=

USA.gov is the U.S. government's official web portal to all federal, state and local government web resources and services.